Flag for Switzerland Weather past 2 weeks in La-Chaux-de-Fonds, Neuchâtel, Switzerland

Now
50 °F

Clear.


Feels Like: 50 °F
Forecast: 53 / 66 °F
Wind: No wind

Location: Les Eplatures

Current Time: Sep 17, 2014 at 3:31:03 AM

Latest Report: Sep 17, 2014 at 2:50 AM


Visibility: N/A

Pressure: 29.98 "Hg

Humidity: 100%

Dew point: 50 °F

Location of La-Chaux-de-FondsLocation

Historic Weather in La-Chaux-de-Fonds — Graph

°F

La-Chaux-de-Fonds temperature yesterday

Maximum temperature yesterday: 68 °F (at 1:20 PM)
Minimum temperature yesterday: 46 °F (at 2:20 AM)
Average temperature yesterday: 57 °F

Past Weeks' High & Low Weather Summary

 TemperatureHumidityPressure
High72 °F (Sep 4, 2:50 PM)100% (Sep 2, 2:20 AM)30.18 "Hg (Sep 2, 2:20 AM)
Low41 °F (Sep 2, 3:20 AM)53% (Sep 7, 2:20 PM)29.95 "Hg (Sep 11, 5:50 AM)
Average55 °F88%30.07 "Hg
* Reported Sep 2 2:20 AM — Sep 17 2:20 AM, La-Chaux-de-Fonds, Weather by CustomWeather, © 2014

Note: Actual official high and low records may vary slightly from our data, if they occured in-between our weather recording intervals... More about our weather records

Advertising

La-Chaux-de-Fonds weather history for previous 24 hours

 ConditionsComfort  
Time TempWeatherWind HumidityBarometerVisibility
2:20 AM
Sep 17
50 °FClear.No wind100%29.98 "Hg10 mi
1:50 AM52 °FClear.No wind100%30.01 "Hg10 mi
1:20 AM54 °FClear.1 mph94%29.98 "Hg10 mi
12:50 AM54 °FClear.1 mph94%30.01 "Hg10 mi
12:20 AM52 °FClear.1 mph94%30.01 "Hg10 mi
11:50 PM
Sep 16
54 °FClear.2 mph100%30.01 "Hg10 mi
11:20 PM55 °FClear.1 mph94%30.01 "Hg10 mi
10:50 PM54 °FClear.1 mph100%30.01 "Hg10 mi
10:20 PM55 °FClear.1 mph88%30.01 "Hg10 mi
9:50 PM55 °FClear.1 mph88%30.01 "Hg10 mi
9:20 PM55 °FSunny.1 mph94%30.01 "Hg10 mi
8:50 PM55 °FSunny.1 mph94%30.01 "Hg10 mi
8:20 PM57 °FSunny.1 mph94%30.01 "Hg10 mi
7:50 PM59 °FCool.2 mph94%30.01 "HgN/A
7:20 PM64 °FPartly sunny.5 mph78%30.01 "HgN/A
6:50 PM64 °FPartly sunny.6 mph78%30.01 "HgN/A
6:20 PM66 °FSunny.3 mph73%30.01 "Hg10 mi
5:50 PM66 °FScattered clouds.3 mph73%30.01 "HgN/A
5:20 PM66 °FScattered clouds.3 mph68%30.01 "HgN/A
4:50 PM64 °FMild.2 mph78%30.01 "HgN/A
4:20 PM66 °FPartly sunny.2 mph64%30.01 "HgN/A
3:50 PM68 °FPartly sunny.3 mph64%30.01 "HgN/A
3:20 PM66 °FScattered clouds.1 mph64%30.01 "HgN/A
2:50 PM66 °FPartly sunny.5 mph64%30.04 "HgN/A
2:20 PM68 °FPartly sunny.3 mph60%30.04 "HgN/A
1:50 PM66 °FBroken clouds.3 mph60%30.04 "HgN/A
1:20 PM68 °FPartly sunny.2 mph69%30.04 "HgN/A
12:50 PM66 °FPartly sunny.2 mph64%30.04 "HgN/A
12:20 PM64 °FPartly sunny.1 mph73%30.04 "HgN/A
11:50 AM64 °FPartly sunny.2 mph68%30.04 "HgN/A
11:20 AM63 °FPartly sunny.1 mph77%30.07 "HgN/A
10:50 AM63 °FScattered clouds.1 mph83%30.07 "HgN/A
10:20 AM61 °FSunny.1 mph88%30.07 "Hg10 mi
9:50 AM57 °FSunny.2 mph100%30.07 "Hg10 mi
9:20 AM57 °FCool.1 mph100%30.07 "HgN/A
8:50 AM54 °FPassing clouds.No wind100%30.04 "Hg4 mi
8:20 AM52 °FPassing clouds.No wind100%30.04 "Hg4 mi
7:50 AM50 °FClear.1 mph100%30.04 "HgN/A
7:20 AM52 °FOvercast.1 mph100%30.04 "Hg5 mi
6:50 AM50 °FPassing clouds.No wind100%30.04 "Hg5 mi
6:20 AM50 °FPartly cloudy.1 mph100%30.04 "Hg3 mi
5:50 AM46 °FFog.No wind100%30.04 "Hg1 mi
5:20 AM46 °FFog.1 mph100%30.04 "Hg0 mi
4:50 AM46 °FFog.No wind100%30.04 "Hg0 mi
4:20 AM48 °FFog.1 mph100%30.04 "Hg1 mi
3:50 AM48 °FFog.1 mph100%30.04 "Hg1 mi
3:20 AM46 °FFog.1 mph100%30.04 "Hg1 mi
Weather by CustomWeather, © 2014

See weather overviewHow to use our weather pages